START_TIME,STEP,MOV.,H8,t_acc.,H43,t_acc.,M25,t_acc.,H9,t_acc.
1979-07-15 00:00:29.750 ,7,0,0.,12.0,0.,12.0,0.,12.0,0.,12.0
1979-07-15 00:00:41.750 ,7,0,0.,12.0,0.,12.0,0.,12.0,0.,12.0
1979-07-15 00:00:53.750 ,6,0,0.,12.0,0.,12.0,0.,12.0,0.,12.0
1979-07-15 00:01:05.750 ,6,0,0.,12.0,0.,12.0,0.,12.0,0.,12.0
1979-07-15 00:01:17.750 ,6,0,0.,12.0,0.,12.0,0.,12.0,0.,12.0
1979-07-15 00:01:29.750 ,6,0,0.,12.0,0.,12.0,0.,12.0,0.,12.0
1979-07-15 00:01:41.750 ,5,0,0.,12.0,0.,12.0,0.,12.0,0.,12.0
1979-07-15 00:01:53.750 ,5,0,0.,12.0,0.,12.0,0.,12.0,0.,12.0
1979-07-15 00:02:05.750 ,5,0,0.,12.0,0.,12.0,0.,12.0,0.,12.0
1979-07-15 00:02:17.750 ,5,0,0.,12.0,0.,12.0,0.,12.0,0.,12.0
1979-07-15 00:02:29.750 ,4,0,0.,12.0,0.,12.0,0.,12.0,0.,12.0
1979-07-15 00:02:41.750 ,4,0,0.,12.0,0.,12.0,0.,12.0,0.,12.0
1979-07-15 00:02:53.750 ,4,0,0.,12.0,0.,12.0,0.,12.0,0.,12.0
1979-07-15 00:03:05.750 ,4,0,0.,12.0,0.,12.0,0.,12.0,0.,12.0
1979-07-15 00:03:17.750 ,3,0,0.,12.0,0.,12.0,0.,12.0,0.,12.0
1979-07-15 00:03:29.750 ,3,0,0.,12.0,0.,12.0,0.,12.0,0.,12.0
1979-07-15 00:03:41.750 ,3,0,0.,12.0,0.,12.0,0.,12.0,0.,12.0
1979-07-15 00:03:53.750 ,3,0,1.,12.0,0.,12.0,0.,12.0,0.,12.0
1979-07-15 00:04:05.750 ,2,0,1.,12.0,0.,12.0,0.,12.0,0.,12.0
1979-07-15 00:04:17.750 ,2,0,0.,12.0,0.,12.0,0.,12.0,0.,12.0
1979-07-15 00:04:29.750 ,2,0,0.,12.0,0.,12.0,0.,12.0,0.,12.0
1979-07-15 00:04:41.750 ,2,0,0.,12.0,0.,12.0,0.,12.0,0.,12.0
1979-07-15 00:04:53.750 ,1,0,0.,12.0,0.,12.0,0.,12.0,0.,12.0
1979-07-15 00:05:05.750 ,1,0,0.,12.0,0.,12.0,0.,12.0,0.,12.0
1979-07-15 00:05:17.750 ,1,0,0.,12.0,0.,12.0,0.,12.0,0.,12.0
1979-07-15 00:05:29.750 ,1,0,0.,12.0,0.,12.0,0.,12.0,0.,12.0
1979-07-15 00:05:41.750 ,0,0,0.,12.0,0.,12.0,0.,12.0,0.,12.0
1979-07-15 00:05:53.750 ,0,0,0.,12.0,0.,12.0,0.,12.0,0.,12.0
1979-07-15 00:06:05.750 ,0,0,0.,12.0,0.,12.0,0.,12.0,0.,12.0
1979-07-15 00:06:17.750 ,0,0,0.,12.0,0.,12.0,0.,12.0,0.,12.0
1979-07-15 00:06:29.750 ,0,0,0.,12.0,0.,12.0,0.,12.0,0.,12.0
1979-07-15 00:06:41.750 ,0,0,0.,12.0,0.,12.0,0.,12.0,0.,12.0
1979-07-15 00:06:53.750 ,0,0,0.,12.0,0.,12.0,0.,12.0,0.,12.0
1979-07-15 00:07:05.750 ,0,0,0.,12.0,0.,12.0,0.,12.0,0.,12.0
1979-07-15 00:07:17.750 ,1,0,0.,12.0,0.,12.0,0.,12.0,0.,12.0
1979-07-15 00:07:29.750 ,1,0,0.,12.0,0.,12.0,0.,12.0,0.,12.0
1979-07-15 00:07:41.750 ,1,0,0.,12.0,0.,12.0,0.,12.0,0.,12.0
1979-07-15 00:07:53.750 ,1,0,0.,12.0,0.,12.0,0.,12.0,0.,12.0
1979-07-15 00:08:05.750 ,2,0,0.,12.0,0.,12.0,0.,12.0,0.,12.0
1979-07-15 00:08:17.750 ,2,0,0.,12.0,0.,12.0,0.,12.0,0.,12.0
1979-07-15 00:08:29.750 ,2,0,0.,12.0,0.,12.0,0.,12.0,0.,12.0
1979-07-15 00:08:41.750 ,2,0,0.,12.0,0.,12.0,0.,12.0,0.,12.0
1979-07-15 00:08:53.750 ,3,0,0.,12.0,0.,12.0,0.,12.0,0.,12.0
1979-07-15 00:09:05.750 ,3,0,0.,12.0,0.,12.0,0.,12.0,0.,12.0
1979-07-15 00:09:17.750 ,3,0,0.,12.0,0.,12.0,0.,12.0,0.,12.0
1979-07-15 00:09:29.750 ,3,0,0.,12.0,0.,12.0,0.,12.0,0.,12.0
1979-07-15 00:09:41.750 ,4,0,0.,12.0,0.,12.0,0.,12.0,0.,12.0
1979-07-15 00:09:53.750 ,4,0,0.,12.0,0.,12.0,0.,12.0,0.,12.0
1979-07-15 00:10:05.750 ,4,0,0.,12.0,0.,12.0,0.,12.0,1.,12.0
1979-07-15 00:10:17.750 ,4,0,0.,12.0,0.,12.0,0.,12.0,0.,12.0
1979-07-15 00:10:29.750 ,5,0,0.,12.0,0.,12.0,0.,12.0,0.,12.0
1979-07-15 00:10:41.750 ,5,0,0.,12.0,0.,12.0,0.,12.0,0.,12.0
1979-07-15 00:10:53.750 ,5,0,0.,12.0,0.,12.0,0.,12.0,0.,12.0
1979-07-15 00:11:05.750 ,5,0,0.,12.0,0.,12.0,0.,12.0,0.,12.0
1979-07-15 00:11:17.750 ,6,0,0.,12.0,0.,12.0,0.,12.0,0.,12.0
1979-07-15 00:11:29.750 ,6,0,0.,12.0,0.,12.0,0.,12.0,0.,12.0
1979-07-15 00:11:41.750 ,6,0,0.,12.0,0.,12.0,0.,12.0,0.,12.0
1979-07-15 00:11:53.750 ,6,0,0.,12.0,0.,12.0,0.,12.0,0.,12.0
1979-07-15 00:12:05.750 ,7,0,0.,12.0,0.,12.0,0.,12.0,0.,12.0
1979-07-15 00:12:17.750 ,7,0,0.,12.0,0.,12.0,0.,12.0,0.,12.0
1979-07-15 00:12:29.750 ,7,0,0.,12.0,0.,12.0,0.,12.0,0.,12.0
1979-07-15 00:12:41.750 ,7,0,0.,12.0,0.,12.0,0.,12.0,0.,12.0
1979-07-15 00:12:53.750 ,7,0,0.,12.0,0.,12.0,0.,12.0,0.,12.0
1979-07-15 00:13:05.750 ,7,0,0.,12.0,0.,12.0,0.,12.0,0.,12.0
1979-07-15 00:13:17.750 ,7,0,0.,12.0,0.,12.0,0.,12.0,0.,12.0
1979-07-15 00:13:29.750 ,7,0,0.,12.0,0.,12.0,0.,12.0,0.,12.0
1979-07-15 00:13:41.750 ,6,0,0.,12.0,0.,12.0,0.,12.0,0.,12.0
1979-07-15 00:13:53.750 ,6,0,0.,12.0,0.,12.0,0.,12.0,0.,12.0
1979-07-15 00:14:05.750 ,6,0,0.,12.0,0.,12.0,0.,12.0,0.,12.0
1979-07-15 00:14:17.750 ,6,0,0.,12.0,0.,12.0,0.,12.0,0.,12.0
1979-07-15 00:14:29.750 ,5,0,0.,12.0,0.,12.0,0.,12.0,0.,12.0
1979-07-15 00:14:41.750 ,5,0,0.,12.0,0.,12.0,0.,12.0,0.,12.0
1979-07-15 00:14:53.750 ,5,0,0.,12.0,0.,12.0,0.,12.0,0.,12.0
1979-07-15 00:15:05.750 ,5,0,0.,12.0,0.,12.0,0.,12.0,0.,12.0
1979-07-15 00:15:17.750 ,4,0,0.,12.0,0.,12.0,0.,12.0,0.,12.0
1979-07-15 00:15:29.750 ,4,0,0.,12.0,0.,12.0,0.,12.0,0.,12.0
1979-07-15 00:15:41.750 ,4,0,0.,12.0,0.,12.0,0.,12.0,0.,12.0
1979-07-15 00:15:53.750 ,4,0,0.,12.0,0.,12.0,0.,12.0,0.,12.0
1979-07-15 00:16:05.750 ,0,0,1.,12.0,0.,12.0,0.,12.0,0.,12.0
1979-07-15 00:16:17.750 ,0,0,0.,12.0,0.,12.0,0.,12.0,0.,12.0
1979-07-15 00:16:29.750 ,0,0,0.,12.0,0.,12.0,0.,12.0,0.,12.0
1979-07-15 00:16:41.750 ,0,0,0.,12.0,0.,12.0,0.,12.0,0.,12.0
1979-07-15 00:16:53.750 ,0,0,0.,12.0,0.,12.0,0.,12.0,0.,12.0
1979-07-15 00:17:05.750 ,0,0,0.,12.0,0.,12.0,0.,12.0,0.,12.0
1979-07-15 00:17:17.750 ,7,0,0.,12.0,0.,12.0,0.,12.0,0.,12.0
1979-07-15 00:17:29.750 ,7,0,0.,12.0,0.,12.0,0.,12.0,0.,12.0
1979-07-15 00:17:41.750 ,7,0,0.,12.0,0.,12.0,0.,12.0,0.,12.0
1979-07-15 00:17:53.750 ,7,0,0.,12.0,0.,12.0,0.,12.0,0.,12.0
1979-07-15 00:18:05.750 ,7,0,0.,12.0,0.,12.0,0.,12.0,0.,12.0
1979-07-15 00:18:17.750 ,7,0,0.,12.0,0.,12.0,0.,12.0,0.,12.0
1979-07-15 00:18:29.750 ,7,0,0.,12.0,0.,12.0,0.,12.0,0.,12.0
1979-07-15 00:18:41.750 ,7,0,0.,12.0,0.,12.0,0.,12.0,0.,12.0
1979-07-15 00:18:53.750 ,7,0,0.,12.0,0.,12.0,0.,12.0,0.,12.0
1979-07-15 00:19:05.750 ,7,0,0.,12.0,0.,12.0,0.,12.0,0.,12.0
1979-07-15 00:19:17.750 ,3,1,0.,12.0,0.,12.0,0.,12.0,0.,12.0
1979-07-15 00:19:29.750 ,3,1,0.,12.0,0.,12.0,0.,12.0,0.,12.0
1979-07-15 00:19:41.750 ,0,1,0.,12.0,0.,12.0,0.,12.0,0.,12.0
1979-07-15 00:19:53.750 ,0,1,0.,12.0,0.,12.0,0.,12.0,0.,12.0
1979-07-15 00:20:05.750 ,4,1,0.,12.0,0.,12.0,0.,12.0,0.,12.0
1979-07-15 00:20:17.750 ,4,1,0.,12.0,0.,12.0,0.,12.0,0.,12.0
1979-07-15 00:20:29.750 ,7,1,0.,12.0,0.,12.0,0.,12.0,0.,12.0
1979-07-15 00:20:41.750 ,7,1,0.,12.0,0.,12.0,0.,12.0,0.,12.0
1979-07-15 00:20:53.750 ,3,1,0.,12.0,0.,12.0,0.,12.0,0.,12.0
1979-07-15 00:21:05.750 ,3,1,0.,12.0,0.,12.0,0.,12.0,0.,12.0
1979-07-15 00:21:17.750 ,0,1,0.,12.0,0.,12.0,0.,12.0,0.,12.0
1979-07-15 00:21:29.750 ,0,1,0.,12.0,0.,12.0,0.,12.0,0.,12.0
1979-07-15 00:21:41.750 ,4,1,0.,12.0,0.,12.0,0.,12.0,0.,12.0
1979-07-15 00:21:53.750 ,4,1,0.,12.0,0.,12.0,0.,12.0,0.,12.0
1979-07-15 00:22:05.750 ,7,1,0.,12.0,0.,12.0,0.,12.0,0.,12.0
1979-07-15 00:22:17.750 ,7,1,0.,12.0,0.,12.0,0.,12.0,0.,12.0
1979-07-15 00:22:29.750 ,3,1,0.,12.0,0.,12.0,0.,12.0,0.,12.0
1979-07-15 00:22:41.750 ,3,1,0.,12.0,0.,12.0,0.,12.0,0.,12.0
1979-07-15 00:22:53.750 ,0,1,0.,12.0,0.,12.0,0.,12.0,0.,12.0
1979-07-15 00:23:05.750 ,0,1,0.,12.0,0.,12.0,0.,12.0,0.,12.0
1979-07-15 00:23:17.750 ,4,1,0.,12.0,0.,12.0,0.,12.0,0.,12.0
1979-07-15 00:23:29.750 ,4,1,0.,12.0,0.,12.0,0.,12.0,0.,12.0
1979-07-15 00:23:41.750 ,7,1,0.,12.0,0.,12.0,0.,12.0,0.,12.0
1979-07-15 00:23:53.750 ,7,1,0.,12.0,0.,12.0,0.,12.0,0.,12.0
1979-07-15 00:24:05.750 ,3,1,0.,12.0,0.,12.0,0.,12.0,0.,12.0
1979-07-15 00:24:17.750 ,3,1,0.,12.0,0.,12.0,0.,12.0,0.,12.0
1979-07-15 00:24:29.750 ,0,1,0.,12.0,0.,12.0,0.,12.0,0.,12.0
1979-07-15 00:24:41.750 ,0,1,0.,12.0,0.,12.0,0.,12.0,0.,12.0
1979-07-15 00:24:53.750 ,4,1,0.,12.0,0.,12.0,0.,12.0,0.,12.0
1979-07-15 00:25:05.750 ,4,1,0.,12.0,0.,12.0,0.,12.0,0.,12.0
1979-07-15 00:25:17.750 ,7,1,0.,12.0,0.,12.0,0.,12.0,0.,12.0
1979-07-15 00:25:29.750 ,7,1,0.,12.0,0.,12.0,0.,12.0,0.,12.0
1979-07-15 00:25:41.750 ,3,1,0.,12.0,0.,12.0,0.,12.0,0.,12.0
1979-07-15 00:25:53.750 ,3,1,0.,12.0,0.,12.0,0.,12.0,0.,12.0
1979-07-15 00:26:05.750 ,0,1,0.,12.0,0.,12.0,0.,12.0,0.,12.0
1979-07-15 00:26:17.750 ,0,1,0.,12.0,0.,12.0,0.,12.0,0.,12.0
1979-07-15 00:26:29.750 ,4,1,0.,12.0,0.,12.0,0.,12.0,0.,12.0
1979-07-15 00:26:41.750 ,4,1,0.,12.0,0.,12.0,0.,12.0,0.,12.0
1979-07-15 00:26:53.750 ,7,1,0.,12.0,0.,12.0,0.,12.0,0.,12.0
1979-07-15 00:27:05.750 ,7,1,0.,12.0,0.,12.0,0.,12.0,0.,12.0
1979-07-15 00:27:17.750 ,3,1,0.,12.0,0.,12.0,0.,12.0,0.,12.0
1979-07-15 00:27:29.750 ,3,1,0.,12.0,0.,12.0,0.,12.0,0.,12.0
1979-07-15 00:27:41.750 ,0,1,0.,12.0,0.,12.0,0.,12.0,0.,12.0
1979-07-15 00:27:53.750 ,0,1,0.,12.0,0.,12.0,0.,12.0,0.,12.0
1979-07-15 00:28:05.750 ,4,1,0.,12.0,0.,12.0,0.,12.0,0.,12.0
1979-07-15 00:28:17.750 ,4,1,0.,12.0,0.,12.0,0.,12.0,0.,12.0
1979-07-15 00:28:29.750 ,7,1,0.,12.0,0.,12.0,0.,12.0,0.,12.0
1979-07-15 00:28:41.750 ,7,1,0.,12.0,0.,12.0,0.,12.0,0.,12.0
1979-07-15 00:28:53.750 ,3,1,0.,12.0,0.,12.0,0.,12.0,0.,12.0
1979-07-15 00:29:05.750 ,3,1,0.,12.0,0.,12.0,0.,12.0,0.,12.0
1979-07-15 00:29:17.750 ,0,1,0.,12.0,0.,12.0,0.,12.0,0.,12.0
1979-07-15 00:29:29.750 ,0,1,0.,12.0,0.,12.0,0.,12.0,0.,12.0
1979-07-15 00:29:41.750 ,0,0,0.,12.0,0.,12.0,0.,12.0,0.,12.0
1979-07-15 00:29:53.750 ,0,0,0.,12.0,0.,12.0,0.,12.0,0.,12.0
1979-07-15 00:30:05.750 ,0,0,0.,12.0,0.,12.0,0.,12.0,0.,12.0
1979-07-15 00:30:17.750 ,0,0,0.,12.0,0.,12.0,0.,12.0,0.,12.0
1979-07-15 00:30:29.750 ,5,0,0.,12.0,0.,12.0,0.,12.0,0.,12.0
1979-07-15 00:30:41.750 ,5,0,0.,12.0,0.,12.0,0.,12.0,0.,12.0
1979-07-15 00:30:53.750 ,5,0,0.,12.0,0.,12.0,0.,12.0,0.,12.0
1979-07-15 00:31:05.750 ,5,0,0.,12.0,0.,12.0,0.,12.0,0.,12.0
1979-07-15 00:31:17.750 ,4,0,0.,12.0,0.,12.0,0.,12.0,0.,12.0
1979-07-15 00:31:29.750 ,4,0,0.,12.0,0.,12.0,0.,12.0,0.,12.0
1979-07-15 00:31:41.750 ,4,0,0.,12.0,0.,12.0,0.,12.0,0.,12.0
1979-07-15 00:31:53.750 ,4,0,0.,12.0,0.,12.0,0.,12.0,0.,12.0
1979-07-15 00:32:05.750 ,3,0,0.,12.0,0.,12.0,0.,12.0,0.,12.0
1979-07-15 00:32:17.750 ,3,0,0.,12.0,0.,12.0,0.,12.0,0.,12.0
1979-07-15 00:32:29.750 ,0,0,0.,12.0,0.,12.0,0.,12.0,0.,12.0
1979-07-15 00:32:41.750 ,0,0,,0,,0,,0,,0
1979-07-15 00:32:48.350 ,0,0,,0,,0,,0,,0
1979-07-15 00:33:00.350 ,0,0,0.,12.0,0.,12.0,0.,12.0,0.,12.0
1979-07-15 00:32:53.750 ,2,0,0.,12.0,0.,12.0,0.,12.0,0.,12.0
1979-07-15 00:33:05.750 ,2,0,0.,12.0,0.,12.0,0.,12.0,0.,12.0
1979-07-15 00:33:17.750 ,2,0,0.,12.0,0.,12.0,0.,12.0,0.,12.0
1979-07-15 00:33:29.750 ,2,0,0.,12.0,0.,12.0,0.,12.0,0.,12.0
1979-07-15 00:33:41.750 ,1,0,0.,12.0,0.,12.0,0.,12.0,0.,12.0
1979-07-15 00:33:53.750 ,1,0,0.,12.0,0.,12.0,0.,12.0,0.,12.0
1979-07-15 00:34:05.750 ,1,0,0.,12.0,0.,12.0,0.,12.0,0.,12.0
1979-07-15 00:34:17.750 ,1,0,0.,12.0,0.,12.0,0.,12.0,0.,12.0
1979-07-15 00:34:29.750 ,0,0,0.,12.0,0.,12.0,0.,12.0,0.,12.0
1979-07-15 00:34:41.750 ,0,0,0.,12.0,0.,12.0,0.,12.0,0.,12.0
1979-07-15 00:34:53.750 ,0,0,0.,12.0,0.,12.0,0.,12.0,0.,12.0
1979-07-15 00:35:05.750 ,0,0,0.,12.0,0.,12.0,0.,12.0,0.,12.0
1979-07-15 00:35:17.750 ,0,0,0.,12.0,0.,12.0,0.,12.0,0.,12.0
1979-07-15 00:35:29.750 ,0,0,0.,12.0,0.,12.0,0.,12.0,0.,12.0
1979-07-15 00:35:41.750 ,0,0,0.,12.0,0.,12.0,0.,12.0,0.,12.0
1979-07-15 00:35:53.750 ,0,0,0.,12.0,0.,12.0,0.,12.0,0.,12.0
1979-07-15 00:36:05.750 ,1,0,0.,12.0,0.,12.0,0.,12.0,0.,12.0
1979-07-15 00:36:17.750 ,1,0,0.,12.0,0.,12.0,0.,12.0,0.,12.0
1979-07-15 00:36:29.750 ,1,0,0.,12.0,0.,12.0,0.,12.0,0.,12.0
1979-07-15 00:36:41.750 ,1,0,0.,12.0,0.,12.0,0.,12.0,0.,12.0
1979-07-15 00:36:53.750 ,2,0,0.,12.0,0.,12.0,0.,12.0,0.,12.0
1979-07-15 00:37:05.750 ,2,0,0.,12.0,0.,12.0,0.,12.0,0.,12.0
1979-07-15 00:37:17.750 ,2,0,0.,12.0,0.,12.0,0.,12.0,0.,12.0
1979-07-15 00:37:29.750 ,2,0,0.,12.0,0.,12.0,0.,12.0,0.,12.0
1979-07-15 00:37:41.750 ,3,0,0.,12.0,0.,12.0,0.,12.0,0.,12.0
1979-07-15 00:37:53.750 ,3,0,0.,12.0,0.,12.0,0.,12.0,0.,12.0
1979-07-15 00:38:05.750 ,3,0,0.,12.0,0.,12.0,0.,12.0,0.,12.0
1979-07-15 00:38:17.750 ,3,0,0.,12.0,0.,12.0,0.,12.0,0.,12.0
1979-07-15 00:38:29.750 ,4,0,0.,12.0,0.,12.0,0.,12.0,0.,12.0
1979-07-15 00:38:41.750 ,4,0,0.,12.0,0.,12.0,0.,12.0,0.,12.0
1979-07-15 00:38:53.750 ,4,0,0.,12.0,0.,12.0,0.,12.0,0.,12.0
1979-07-15 00:39:05.750 ,4,0,0.,12.0,0.,12.0,0.,12.0,0.,12.0
1979-07-15 00:39:17.750 ,5,0,0.,12.0,0.,12.0,0.,12.0,0.,12.0
1979-07-15 00:39:29.750 ,5,0,0.,12.0,0.,12.0,0.,12.0,0.,12.0
1979-07-15 00:39:41.750 ,5,0,0.,12.0,0.,12.0,0.,12.0,0.,12.0
1979-07-15 00:39:53.750 ,5,0,0.,12.0,0.,12.0,0.,12.0,0.,12.0
1979-07-15 00:40:05.750 ,6,0,0.,12.0,0.,12.0,0.,12.0,0.,12.0
1979-07-15 00:40:17.750 ,6,0,0.,12.0,0.,12.0,0.,12.0,0.,12.0
1979-07-15 00:40:29.750 ,6,0,0.,12.0,0.,12.0,0.,12.0,0.,12.0
1979-07-15 00:40:41.750 ,6,0,0.,12.0,0.,12.0,0.,12.0,0.,12.0
1979-07-15 00:40:53.750 ,7,0,0.,12.0,0.,12.0,0.,12.0,0.,12.0
1979-07-15 00:41:05.750 ,7,0,0.,12.0,0.,12.0,0.,12.0,0.,12.0
1979-07-15 00:41:17.750 ,7,0,0.,12.0,0.,12.0,0.,12.0,0.,12.0
1979-07-15 00:41:29.750 ,7,0,0.,12.0,0.,12.0,0.,12.0,0.,12.0
1979-07-15 00:41:41.750 ,7,0,0.,12.0,0.,12.0,0.,12.0,0.,12.0
1979-07-15 00:41:53.750 ,7,0,0.,12.0,0.,12.0,0.,12.0,0.,12.0
1979-07-15 00:42:05.750 ,7,0,0.,12.0,0.,12.0,0.,12.0,0.,12.0
1979-07-15 00:42:17.750 ,7,0,0.,12.0,0.,12.0,0.,12.0,0.,12.0
1979-07-15 00:42:29.750 ,6,0,0.,12.0,0.,12.0,0.,12.0,0.,12.0
1979-07-15 00:42:41.750 ,6,0,0.,12.0,0.,12.0,0.,12.0,0.,12.0
1979-07-15 00:42:53.750 ,6,0,0.,12.0,0.,12.0,0.,12.0,0.,12.0
1979-07-15 00:43:05.750 ,6,0,0.,12.0,0.,12.0,0.,12.0,0.,12.0
1979-07-15 00:43:17.750 ,5,0,0.,12.0,0.,12.0,0.,12.0,0.,12.0
1979-07-15 00:43:29.750 ,5,0,0.,12.0,0.,12.0,0.,12.0,0.,12.0
1979-07-15 00:43:41.750 ,5,0,0.,12.0,0.,12.0,0.,12.0,0.,12.0
1979-07-15 00:43:53.750 ,5,0,0.,12.0,0.,12.0,0.,12.0,0.,12.0
1979-07-15 00:44:05.750 ,4,0,0.,12.0,0.,12.0,0.,12.0,0.,12.0
1979-07-15 00:44:17.750 ,4,0,0.,12.0,0.,12.0,0.,12.0,0.,12.0
1979-07-15 00:44:29.750 ,4,0,0.,12.0,0.,12.0,0.,12.0,0.,12.0
1979-07-15 00:44:41.750 ,4,0,0.,12.0,0.,12.0,0.,12.0,0.,12.0
1979-07-15 00:44:53.750 ,3,0,0.,12.0,0.,12.0,0.,12.0,0.,12.0
1979-07-15 00:45:05.750 ,3,0,0.,12.0,0.,12.0,0.,12.0,0.,12.0
1979-07-15 00:45:17.750 ,3,0,0.,12.0,0.,12.0,0.,12.0,0.,12.0
1979-07-15 00:45:29.750 ,3,0,0.,12.0,0.,12.0,0.,12.0,0.,12.0
1979-07-15 00:45:41.750 ,2,0,0.,12.0,0.,12.0,0.,12.0,0.,12.0
1979-07-15 00:45:53.750 ,2,0,0.,12.0,0.,12.0,0.,12.0,0.,12.0
1979-07-15 00:46:05.750 ,2,0,0.,12.0,0.,12.0,0.,12.0,0.,12.0
1979-07-15 00:46:17.750 ,2,0,0.,12.0,0.,12.0,0.,12.0,0.,12.0
1979-07-15 00:46:29.750 ,1,0,0.,12.0,0.,12.0,0.,12.0,0.,12.0
1979-07-15 00:46:41.750 ,1,0,0.,12.0,0.,12.0,0.,12.0,0.,12.0
1979-07-15 00:46:53.750 ,1,0,0.,12.0,0.,12.0,0.,12.0,0.,12.0
1979-07-15 00:47:05.750 ,1,0,0.,12.0,0.,12.0,0.,12.0,0.,12.0
1979-07-15 00:47:17.750 ,0,0,0.,12.0,0.,12.0,0.,12.0,0.,12.0
1979-07-15 00:47:29.750 ,0,0,0.,12.0,0.,12.0,0.,12.0,0.,12.0
1979-07-15 00:47:41.750 ,0,0,0.,12.0,0.,12.0,0.,12.0,0.,12.0
1979-07-15 00:47:53.750 ,0,0,0.,12.0,0.,12.0,0.,12.0,0.,12.0
1979-07-15 00:48:05.750 ,0,0,0.,12.0,0.,12.0,0.,12.0,0.,12.0
1979-07-15 00:48:17.750 ,0,0,0.,12.0,0.,12.0,0.,12.0,0.,12.0
1979-07-15 00:48:29.750 ,0,0,0.,12.0,0.,12.0,0.,12.0,0.,12.0
1979-07-15 00:48:41.750 ,0,0,0.,12.0,0.,12.0,0.,12.0,0.,12.0
1979-07-15 00:48:53.750 ,1,0,0.,12.0,0.,12.0,0.,12.0,0.,12.0
1979-07-15 00:49:05.750 ,1,0,0.,12.0,0.,12.0,0.,12.0,0.,12.0
1979-07-15 00:49:17.750 ,1,0,0.,12.0,0.,12.0,0.,12.0,0.,12.0
1979-07-15 00:49:29.750 ,1,0,0.,12.0,0.,12.0,0.,12.0,0.,12.0
1979-07-15 00:49:41.750 ,2,0,0.,12.0,0.,12.0,0.,12.0,0.,12.0
1979-07-15 00:49:53.750 ,2,0,0.,12.0,0.,12.0,0.,12.0,0.,12.0
1979-07-15 00:50:05.750 ,2,0,0.,12.0,0.,12.0,0.,12.0,0.,12.0
1979-07-15 00:50:17.750 ,2,0,0.,12.0,0.,12.0,0.,12.0,0.,12.0
1979-07-15 00:50:29.750 ,3,0,0.,12.0,0.,12.0,0.,12.0,0.,12.0
1979-07-15 00:50:41.750 ,3,0,0.,12.0,0.,12.0,0.,12.0,0.,12.0
1979-07-15 00:50:53.750 ,3,0,0.,12.0,0.,12.0,0.,12.0,0.,12.0
1979-07-15 00:51:05.750 ,3,0,0.,12.0,0.,12.0,0.,12.0,0.,12.0
1979-07-15 00:51:17.750 ,4,0,0.,12.0,0.,12.0,0.,12.0,0.,12.0
1979-07-15 00:51:29.750 ,4,0,0.,12.0,0.,12.0,0.,12.0,0.,12.0
1979-07-15 00:51:41.750 ,4,0,0.,12.0,0.,12.0,0.,12.0,0.,12.0
1979-07-15 00:51:53.750 ,4,0,0.,12.0,0.,12.0,0.,12.0,0.,12.0
1979-07-15 00:52:05.750 ,5,0,0.,12.0,0.,12.0,0.,12.0,0.,12.0
1979-07-15 00:52:17.750 ,5,0,0.,12.0,0.,12.0,0.,12.0,0.,12.0
1979-07-15 00:52:29.750 ,5,0,0.,12.0,0.,12.0,0.,12.0,0.,12.0
1979-07-15 00:52:41.750 ,5,0,0.,12.0,0.,12.0,0.,12.0,0.,12.0
1979-07-15 00:52:53.750 ,6,0,0.,12.0,0.,12.0,0.,12.0,0.,12.0
1979-07-15 00:53:05.750 ,6,0,0.,12.0,0.,12.0,0.,12.0,0.,12.0
1979-07-15 00:53:17.750 ,6,0,0.,12.0,0.,12.0,0.,12.0,0.,12.0
1979-07-15 00:53:29.750 ,6,0,0.,12.0,0.,12.0,0.,12.0,0.,12.0
1979-07-15 00:53:41.750 ,7,0,0.,12.0,0.,12.0,0.,12.0,0.,12.0
1979-07-15 00:53:53.750 ,7,0,0.,12.0,0.,12.0,0.,12.0,0.,12.0
1979-07-15 00:54:05.750 ,7,0,0.,12.0,0.,12.0,0.,12.0,0.,12.0
1979-07-15 00:54:17.750 ,7,0,0.,12.0,0.,12.0,0.,12.0,0.,12.0
1979-07-15 00:54:29.750 ,7,0,0.,12.0,0.,12.0,0.,12.0,0.,12.0
1979-07-15 00:54:41.750 ,7,0,0.,12.0,0.,12.0,0.,12.0,0.,12.0
1979-07-15 00:54:53.750 ,7,0,0.,12.0,0.,12.0,0.,12.0,0.,12.0
1979-07-15 00:55:05.750 ,7,0,0.,12.0,0.,12.0,0.,12.0,0.,12.0
1979-07-15 00:55:17.750 ,6,0,0.,12.0,0.,12.0,0.,12.0,0.,12.0
1979-07-15 00:55:29.750 ,6,0,0.,12.0,0.,12.0,0.,12.0,0.,12.0
1979-07-15 00:55:41.750 ,6,0,0.,12.0,0.,12.0,0.,12.0,0.,12.0
1979-07-15 00:55:53.750 ,6,0,0.,12.0,0.,12.0,0.,12.0,0.,12.0
1979-07-15 00:56:05.750 ,5,0,0.,12.0,0.,12.0,0.,12.0,0.,12.0
1979-07-15 00:56:17.750 ,5,0,0.,12.0,0.,12.0,0.,12.0,0.,12.0
1979-07-15 00:56:29.750 ,5,0,0.,12.0,0.,12.0,0.,12.0,0.,12.0
1979-07-15 00:56:41.750 ,5,0,0.,12.0,0.,12.0,0.,12.0,0.,12.0
1979-07-15 00:56:53.750 ,4,0,0.,12.0,0.,12.0,0.,12.0,0.,12.0
1979-07-15 00:57:05.750 ,4,0,0.,12.0,0.,12.0,0.,12.0,0.,12.0
1979-07-15 00:57:17.750 ,4,0,0.,12.0,0.,12.0,0.,12.0,0.,12.0
1979-07-15 00:57:29.750 ,4,0,0.,12.0,0.,12.0,0.,12.0,0.,12.0
1979-07-15 00:57:41.750 ,3,0,0.,12.0,0.,12.0,0.,12.0,0.,12.0
1979-07-15 00:57:53.750 ,3,0,0.,12.0,0.,12.0,0.,12.0,0.,12.0
1979-07-15 00:58:05.750 ,3,0,0.,12.0,0.,12.0,0.,12.0,0.,12.0
1979-07-15 00:58:17.750 ,3,0,0.,12.0,0.,12.0,0.,12.0,0.,12.0
1979-07-15 00:58:29.750 ,2,0,0.,12.0,0.,12.0,0.,12.0,0.,12.0
1979-07-15 00:58:41.750 ,2,0,0.,12.0,0.,12.0,0.,12.0,0.,12.0
1979-07-15 00:58:53.750 ,2,0,0.,12.0,0.,12.0,0.,12.0,0.,12.0
1979-07-15 00:59:05.750 ,2,0,0.,12.0,0.,12.0,0.,12.0,0.,12.0
1979-07-15 00:59:17.750 ,1,0,0.,12.0,0.,12.0,0.,12.0,0.,12.0
1979-07-15 00:59:29.750 ,1,0,0.,12.0,0.,12.0,0.,12.0,0.,12.0
1979-07-15 00:59:41.750 ,1,0,0.,12.0,0.,12.0,0.,12.0,0.,12.0
1979-07-15 00:59:53.750 ,1,0,0.,12.0,0.,12.0,0.,12.0,0.,12.0
1979-07-15 01:00:05.750 ,0,0,0.,12.0,0.,12.0,0.,12.0,0.,12.0
1979-07-15 01:00:17.750 ,0,0,0.,12.0,0.,12.0,0.,12.0,0.,12.0
1979-07-15 01:00:29.750 ,0,0,0.,12.0,0.,12.0,0.,12.0,0.,12.0
1979-07-15 01:00:41.750 ,0,0,0.,12.0,0.,12.0,0.,12.0,0.,12.0
1979-07-15 01:00:53.750 ,0,0,0.,12.0,0.,12.0,0.,12.0,0.,12.0
1979-07-15 01:01:05.750 ,0,0,0.,12.0,0.,12.0,0.,12.0,0.,12.0
1979-07-15 01:01:17.750 ,0,0,0.,12.0,0.,12.0,0.,12.0,0.,12.0
1979-07-15 01:01:29.750 ,0,0,0.,12.0,0.,12.0,0.,12.0,0.,12.0
1979-07-15 01:01:41.750 ,1,0,0.,12.0,0.,12.0,0.,12.0,0.,12.0
1979-07-15 01:01:53.750 ,1,0,0.,12.0,0.,12.0,0.,12.0,0.,12.0
1979-07-15 01:02:05.750 ,1,0,0.,12.0,0.,12.0,0.,12.0,0.,12.0
1979-07-15 01:02:17.750 ,1,0,0.,12.0,0.,12.0,0.,12.0,0.,12.0
1979-07-15 01:02:29.750 ,2,0,0.,12.0,0.,12.0,0.,12.0,0.,12.0
1979-07-15 01:02:41.750 ,2,0,0.,12.0,0.,12.0,0.,12.0,0.,12.0
1979-07-15 01:02:53.750 ,2,0,0.,12.0,0.,12.0,0.,12.0,0.,12.0
1979-07-15 01:03:05.750 ,2,0,0.,12.0,0.,12.0,0.,12.0,0.,12.0
1979-07-15 01:03:17.750 ,3,0,0.,12.0,0.,12.0,0.,12.0,0.,12.0
1979-07-15 01:03:29.750 ,3,0,0.,12.0,0.,12.0,0.,12.0,0.,12.0
1979-07-15 01:03:41.750 ,3,0,0.,12.0,0.,12.0,0.,12.0,0.,12.0
1979-07-15 01:03:53.750 ,3,0,0.,12.0,0.,12.0,0.,12.0,0.,12.0
1979-07-15 01:04:05.750 ,4,0,0.,12.0,0.,12.0,0.,12.0,0.,12.0
1979-07-15 01:04:17.750 ,4,0,0.,12.0,0.,12.0,0.,12.0,0.,12.0
1979-07-15 01:04:29.750 ,4,0,0.,12.0,0.,12.0,0.,12.0,0.,12.0
1979-07-15 01:04:41.750 ,4,0,0.,12.0,0.,12.0,0.,12.0,0.,12.0
1979-07-15 01:04:53.750 ,5,0,0.,12.0,0.,12.0,0.,12.0,0.,12.0
1979-07-15 01:05:05.750 ,5,0,0.,12.0,0.,12.0,0.,12.0,0.,12.0
1979-07-15 01:05:17.750 ,5,0,0.,12.0,0.,12.0,0.,12.0,0.,12.0
1979-07-15 01:05:29.750 ,5,0,0.,12.0,0.,12.0,0.,12.0,0.,12.0
1979-07-15 01:05:41.750 ,6,0,0.,12.0,0.,12.0,0.,12.0,0.,12.0
1979-07-15 01:05:53.750 ,6,0,0.,12.0,0.,12.0,0.,12.0,0.,12.0
1979-07-15 01:06:05.750 ,6,0,0.,12.0,0.,12.0,0.,12.0,0.,12.0
1979-07-15 01:06:17.750 ,6,0,0.,12.0,0.,12.0,0.,12.0,0.,12.0
1979-07-15 01:06:29.750 ,7,0,0.,12.0,0.,12.0,0.,12.0,0.,12.0
1979-07-15 01:06:41.750 ,7,0,0.,12.0,0.,12.0,0.,12.0,0.,12.0
1979-07-15 01:06:53.750 ,7,0,0.,12.0,0.,12.0,0.,12.0,0.,12.0
1979-07-15 01:07:05.750 ,7,0,0.,12.0,0.,12.0,0.,12.0,0.,12.0
1979-07-15 01:07:17.750 ,3,1,0.,12.0,0.,12.0,0.,12.0,0.,12.0
1979-07-15 01:07:29.750 ,3,1,0.,12.0,0.,12.0,0.,12.0,0.,12.0
1979-07-15 01:07:41.750 ,0,1,0.,12.0,0.,12.0,0.,12.0,0.,12.0
1979-07-15 01:07:53.750 ,0,1,0.,12.0,0.,12.0,0.,12.0,0.,12.0
1979-07-15 01:08:05.750 ,4,1,0.,12.0,0.,12.0,0.,12.0,0.,12.0
1979-07-15 01:08:17.750 ,4,1,0.,12.0,0.,12.0,0.,12.0,0.,12.0
1979-07-15 01:08:29.750 ,7,1,0.,12.0,0.,12.0,0.,12.0,0.,12.0
1979-07-15 01:08:41.750 ,7,1,0.,12.0,0.,12.0,0.,12.0,0.,12.0
1979-07-15 01:08:53.750 ,3,1,0.,12.0,0.,12.0,0.,12.0,0.,12.0
1979-07-15 01:09:05.750 ,3,1,0.,12.0,0.,12.0,0.,12.0,0.,12.0
1979-07-15 01:09:17.750 ,0,1,0.,12.0,0.,12.0,0.,12.0,0.,12.0
1979-07-15 01:09:29.750 ,0,1,0.,12.0,0.,12.0,0.,12.0,0.,12.0
1979-07-15 01:09:41.750 ,4,1,0.,12.0,0.,12.0,0.,12.0,0.,12.0
1979-07-15 01:09:53.750 ,4,1,0.,12.0,0.,12.0,0.,12.0,0.,12.0
1979-07-15 01:10:05.750 ,7,1,0.,12.0,0.,12.0,0.,12.0,0.,12.0
1979-07-15 01:10:17.750 ,7,1,0.,12.0,0.,12.0,0.,12.0,0.,12.0
1979-07-15 01:10:29.750 ,3,1,0.,12.0,0.,12.0,0.,12.0,0.,12.0
1979-07-15 01:10:41.750 ,3,1,0.,12.0,0.,12.0,0.,12.0,0.,12.0
1979-07-15 01:10:53.750 ,0,1,0.,12.0,0.,12.0,0.,12.0,0.,12.0
1979-07-15 01:11:05.750 ,0,1,0.,12.0,0.,12.0,0.,12.0,0.,12.0
1979-07-15 01:11:17.750 ,4,1,0.,12.0,0.,12.0,0.,12.0,0.,12.0
1979-07-15 01:11:29.750 ,4,1,0.,12.0,0.,12.0,0.,12.0,0.,12.0
1979-07-15 01:11:41.750 ,7,1,0.,12.0,0.,12.0,0.,12.0,0.,12.0
1979-07-15 01:11:53.750 ,7,1,0.,12.0,0.,12.0,0.,12.0,0.,12.0
1979-07-15 01:12:05.750 ,3,1,0.,12.0,0.,12.0,0.,12.0,0.,12.0
1979-07-15 01:12:17.750 ,3,1,0.,12.0,0.,12.0,0.,12.0,0.,12.0
1979-07-15 01:12:29.750 ,0,1,0.,12.0,0.,12.0,0.,12.0,0.,12.0
1979-07-15 01:12:41.750 ,0,1,0.,12.0,0.,12.0,0.,12.0,0.,12.0
1979-07-15 01:12:53.750 ,4,1,0.,12.0,0.,12.0,0.,12.0,0.,12.0
1979-07-15 01:13:05.750 ,4,1,0.,12.0,0.,12.0,0.,12.0,0.,12.0
1979-07-15 01:13:17.750 ,7,1,0.,12.0,0.,12.0,0.,12.0,0.,12.0
1979-07-15 01:13:29.750 ,7,1,0.,12.0,0.,12.0,0.,12.0,0.,12.0
1979-07-15 01:13:41.750 ,3,1,0.,12.0,0.,12.0,0.,12.0,0.,12.0
1979-07-15 01:13:53.750 ,3,1,0.,12.0,0.,12.0,0.,12.0,0.,12.0
1979-07-15 01:14:05.750 ,0,1,0.,12.0,0.,12.0,0.,12.0,0.,12.0
1979-07-15 01:14:17.750 ,0,1,0.,12.0,0.,12.0,0.,12.0,0.,12.0
1979-07-15 01:14:29.750 ,4,1,0.,12.0,0.,12.0,0.,12.0,0.,12.0
1979-07-15 01:14:41.750 ,4,1,0.,12.0,0.,12.0,0.,12.0,0.,12.0
1979-07-15 01:14:53.750 ,7,1,0.,12.0,0.,12.0,0.,12.0,0.,12.0
1979-07-15 01:15:05.750 ,7,1,0.,12.0,0.,12.0,0.,12.0,0.,12.0
1979-07-15 01:15:17.750 ,3,1,0.,12.0,0.,12.0,0.,12.0,0.,12.0
1979-07-15 01:15:29.750 ,3,1,0.,12.0,0.,12.0,0.,12.0,0.,12.0
1979-07-15 01:15:41.750 ,0,1,0.,12.0,0.,12.0,0.,12.0,0.,12.0
1979-07-15 01:15:53.750 ,0,1,0.,12.0,0.,12.0,0.,12.0,0.,12.0
1979-07-15 01:16:05.750 ,4,1,0.,12.0,0.,12.0,0.,12.0,0.,12.0
1979-07-15 01:16:17.750 ,4,1,0.,12.0,0.,12.0,0.,12.0,0.,12.0
1979-07-15 01:16:29.750 ,7,1,0.,12.0,0.,12.0,0.,12.0,0.,12.0
1979-07-15 01:16:41.750 ,7,1,0.,12.0,0.,12.0,0.,12.0,0.,12.0
1979-07-15 01:16:53.750 ,3,1,0.,12.0,0.,12.0,0.,12.0,0.,12.0
1979-07-15 01:17:05.750 ,3,1,0.,12.0,0.,12.0,0.,12.0,0.,12.0